Location: Corte Bragagnani
(45.3000°N, 11.1000°E)
Time: 11:14:29
(UTC+00:00)

Cosmos 1825 - Pass Details

Date: 09 April 2020
Orbit: 502 x 509 km, 82.5° (Epoch: 23 May)

Event Time Altitude Azimuth Distance (km) Brightness Sun altitude
Rises 20:01:13 0° 2° (N) 2,627 6.3 -21.0°
Reaches altitude 10° 20:03:36 10° 15° (NNE) 1,734 5.1 -21.4°
Enters shadow 20:05:34 22° 41° (NE) 1,167 3.9 -21.6°
